Location: Caltech
(34.1382°N, 118.1253°W)
Time: 16:29:59
(UTC-08:00)

Cosmos 44 Rocket - Visible Passes

Search period start: 31 January 2015 00:00
Search period end: 10 February 2015 00:00
Orbit: 661 x 731 km, 65.1° (Epoch: 31 January)

Date Brightness Start Highest point End Pass type
(mag) Time Alt. Az. Time Alt. Az. Time Alt. Az.
07 Feb 5.6 19:44:48 10° NNW 19:45:19 13° N 19:45:19 13° N visible
08 Feb 5.1 18:46:38 10° NNE 18:48:16 15° NNE 18:48:16 15° NNE visible
08 Feb 6.0 20:26:43 10° NW 20:27:03 12° NW 20:27:03 12° NW visible
09 Feb 4.3 19:27:24 10° NNW 19:30:09 32° N 19:30:09 32° N visible
